Location: Unspecified
(49.2170°N, 0.0000°E)
Time: 04:44:16
(UTC+00:00)

Transit 2A - Pass Details

Date: 25 June 2019
Orbit: 597 x 962 km, 66.7° (Epoch: 21 August)

Event Time Altitude Azimuth Distance (km) Brightness Sun altitude
Rises 00:24:52 0° 224° (SW) 3,629 - -17.2°
Reaches altitude 10° 00:27:27 10° 227° (SW) 2,693 - -17.2°
Exits shadow 00:28:37 16° 229° (SW) 2,282 8.0 -17.2°
Maximum altitude 00:33:47 67° 310° (NW) 1,028 6.7 -17.0°
Drops below altitude 10° 00:39:57 10° 33° (NNE) 2,618 9.8 -16.9°
Sets 00:42:26 0° 36° (NE) 3,522 10.6 -16.8°
